QPF
0.00 0.00 0.00 0.00 0.00 0.00 0.00 0.00 0.00 0.00 0.00 0.00 0.00 0.00 0.00 0.00 0.00 0.00 0.00 0.00 0.00 0.00 0.00 0.00 0.00 0.00 0.00 0.00 0.00 0.00 0.00 0.00 0.00 0.00 0.00 0.00 0.00 0.00 0.00 0.00 0.00 0.00 0.00
0.00 0.00 0.00 0.00 0.00 0.00 0.00 0.00 0.00 0.00 0.00 0.00 0.00 0.00 0.00 0.00 0.00 0.00 0.00 0.00 0.00 0.00 0.00 0.00 0.00 0.00 0.00 0.00 0.00 0.00 0.00 0.00 0.00 0.00 0.00 0.00 0.00 0.00 0.00 0.00 0.00 0.00 0.00
0.00 0.00 0.00 0.00 0.00 0.00 0.00 0.00 0.00 0.00 0.00 0.00 0.00 0.00 0.00 0.00 0.00 0.00 0.00 0.00 0.00 0.00 0.00 0.00 0.00 0.00 0.00 0.00 0.00 0.00 0.00 0.00 0.00 0.00 0.00 0.00 0.00 0.00 0.00 0.00 0.00 0.00 0.00
0.00 0.00 0.00 0.00 0.00 0.00 0.00 0.00 0.00 0.00 0.00 0.00 0.00 0.00 0.00 0.00 0.00 0.00 0.00 0.00 0.00 0.00 0.00 0.00 0.00 0.00 0.00 0.00 0.00 0.00 0.00 0.00 0.00 0.00 0.00 0.00 0.00 0.00 0.00 0.00 0.00 0.00 0.00
0.00 0.00 0.00 0.00 0.00 0.00 0.00 0.00 0.00 0.00 0.00 0.00 0.00 0.00 0.00 0.00 0.00 0.00 0.00 0.00 0.00 0.00 0.00 0.00 0.00 0.00 0.00 0.00 0.00 0.00 0.00 0.00 0.00 0.00 0.00 0.00 0.00 0.00 0.00 0.00 0.00 0.00 0.00
0.00 0.00 0.00 0.00 0.00 0.00 0.00 0.00 0.00 0.00 0.00 0.00 0.00 0.00 0.00 0.00 0.00 0.00 0.00 0.00 0.00 0.00 0.00 0.00 0.00 0.00 0.00 0.00 0.00 0.00 0.00 0.00 0.00 0.00 0.00 0.00 0.00 0.00 0.00 0.00 0.00 0.00 0.00
0.00 0.00 0.00 0.00 0.00 0.00 0.00 0.00 0.00 0.00 0.00 0.00 0.00 0.00 0.00 0.00 0.00 0.00 0.00 0.00 0.00 0.00 0.00 0.00 0.00 0.00 0.00 0.00 0.00 0.00 0.00 0.00 0.00 0.00 0.00 0.00 0.00 0.00 0.00 0.00 0.00 0.00 0.00
0.00 0.00 0.00 0.00 0.00 0.00 0.00 0.00 0.00 0.00 0.00 0.00 0.00 0.00 0.00 0.00 0.00 0.00 0.00 0.00 0.00 0.00 0.00 0.00 0.00 0.00 0.00 0.00 0.00 0.00 0.00 0.00 0.00 0.00 0.00 0.00 0.00 0.00 0.00 0.00 0.00 0.00 0.00
0.00 0.00 0.00 0.00 0.00 0.00 0.00 0.00 0.00 0.00 0.00 0.00 0.00 0.00 0.00 0.00 0.00 0.00 0.00 0.00 0.00 0.00 0.00 0.00 0.00 0.00 0.00 0.00 0.00 0.00 0.00 0.00 0.00 0.00 0.00 0.00 0.00 0.00 0.00 0.00 0.00 0.00 0.00
0.00 0.00 0.00 0.00 0.00 0.00 0.00 0.00 0.00 0.00 0.00 0.00 0.00 0.00 0.00 0.00 0.00 0.00 0.00 0.00 0.00 0.00 0.00 0.00 0.00 0.00 0.00 0.00 0.00 0.00 0.00 0.00 0.00 0.00 0.00 0.00 0.00 0.00 0.00 0.00 0.00 0.00 0.00
0.00 0.00 0.00 0.00 0.00 0.00 0.00 0.00 0.00 0.00 0.00 0.00 0.00 0.00 0.00 0.00 0.00 0.00 0.00 0.00 0.00 0.00 0.00 0.00 0.00 0.00 0.00 0.00 0.00 0.00 0.00 0.00 0.00 0.00 0.00 0.00 0.00 0.00 0.00 0.00 0.00 0.00 0.00
0.00 0.00 0.00 0.00 0.00 0.00 0.00 0.00 0.00 0.00 0.00 0.00 0.00 0.00 0.00 0.00 0.00 0.00 0.00 0.00 0.00 0.00 0.00 0.00 0.00 0.00 0.00 0.00 0.00 0.00 0.00 0.00 0.00 0.00 0.00 0.00 0.00 0.00 0.00 0.00 0.00 0.00 0.00
0.00 0.00 0.00 0.00 0.00 0.00 0.00 0.00 0.00 0.00 0.00 0.00 0.00 0.00 0.00 0.00 0.00 0.00 0.00 0.00 0.00 0.00 0.00 0.00 0.00 0.00 0.00 0.00 0.00 0.00 0.00 0.00 0.00 0.00 0.00 0.00 0.00 0.00 0.00 0.00 0.00 0.00 0.00
0.00 0.00 0.00 0.00 0.00 0.00 0.00 0.00 0.00 0.00 0.00 0.00 0.00 0.00 0.00 0.00 0.00 0.00 0.00 0.00 0.00 0.00 0.00 0.00 0.00 0.00 0.00 0.00 0.00 0.00 0.00 0.00 0.00 0.00 0.00 0.00 0.00 0.00 0.00 0.00 0.00 0.00 0.00
0.00 0.00 0.00 0.00 0.00 0.00 0.00 0.00 0.00 0.00 0.00 0.00 0.00 0.00 0.00 0.00 0.00 0.00 0.00 0.00 0.00 0.00 0.00 0.00 0.00 0.00 0.00 0.00 0.00 0.00 0.00 0.00 0.00 0.00 0.00 0.00 0.00 0.00 0.00 0.00 0.00 0.00 0.01
0.00 0.00 0.00 0.00 0.00 0.00 0.00 0.00 0.00 0.00 0.00 0.00 0.00 0.00 0.00 0.00 0.00 0.00 0.00 0.00 0.00 0.00 0.00 0.00 0.00 0.00 0.00 0.00 0.00 0.00 0.00 0.00 0.00 0.00 0.00 0.00 0.00 0.00 0.00 0.01 0.01 0.01 0.01
0.00 0.00 0.00 0.00 0.00 0.00 0.00 0.00 0.00 0.00 0.00 0.00 0.00 0.00 0.00 0.00 0.00 0.00 0.00 0.00 0.00 0.00 0.00 0.00 0.00 0.00 0.00 0.00 0.00 0.00 0.00 0.00 0.00 0.00 0.00 0.00 0.00 0.00 0.00 0.00 0.01 0.01 0.02
0.00 0.00 0.00 0.00 0.00 0.00 0.00 0.00 0.00 0.00 0.00 0.00 0.00 0.00 0.00 0.00 0.00 0.00 0.00 0.00 0.00 0.00 0.00 0.00 0.00 0.00 0.00 0.00 0.00 0.00 0.00 0.00 0.00 0.00 0.00 0.00 0.00 0.00 0.00 0.00 0.00 0.00 0.01
0.00 0.00 0.00 0.00 0.00 0.00 0.00 0.00 0.00 0.00 0.00 0.00 0.00 0.00 0.00 0.00 0.00 0.00 0.00 0.00 0.00 0.00 0.00 0.00 0.00 0.00 0.00 0.00 0.00 0.00 0.00 0.00 0.00 0.00 0.00 0.00 0.00 0.00 0.01 0.01 0.01 0.01 0.00
0.00 0.00 0.00 0.00 0.00 0.00 0.00 0.00 0.00 0.00 0.00 0.00 0.00 0.00 0.00 0.00 0.00 0.00 0.00 0.00 0.00 0.00 0.00 0.00 0.00 0.00 0.00 0.00 0.00 0.01 0.01 0.00 0.00 0.00 0.00 0.00 0.00 0.01 0.01 0.01 0.02 0.02 0.01
0.00 0.00 0.00 0.00 0.00 0.00 0.00 0.00 0.00 0.00 0.00 0.00 0.00 0.00 0.00 0.00 0.00 0.00 0.00 0.00 0.00 0.00 0.00 0.00 0.00 0.00 0.00 0.00 0.00 0.01 0.01 0.01 0.01 0.01 0.00 0.00 0.00 0.01 0.02 0.02 0.02 0.02 0.02
0.00 0.00 0.00 0.00 0.00 0.00 0.00 0.00 0.00 0.00 0.00 0.00 0.00 0.00 0.00 0.00 0.00 0.00 0.00 0.00 0.00 0.00 0.00 0.00 0.00 0.00 0.00 0.00 0.00 0.01 0.02 0.03 0.02 0.02 0.01 0.00 0.01 0.01 0.02 0.02 0.03 0.04 0.05
0.00 0.00 0.00 0.00 0.00 0.00 0.00 0.00 0.00 0.00 0.00 0.00 0.00 0.00 0.00 0.00 0.00 0.00 0.00 0.00 0.00 0.00 0.00 0.00 0.00 0.00 0.00 0.00 0.01 0.01 0.02 0.02 0.02 0.02 0.02 0.02 0.02 0.02 0.02 0.02 0.03 0.04 0.05
0.00 0.00 0.00 0.00 0.00 0.00 0.00 0.00 0.00 0.00 0.00 0.00 0.00 0.00 0.00 0.00 0.00 0.00 0.00 0.00 0.00 0.00 0.01 0.01 0.01 0.01 0.01 0.01 0.01 0.01 0.02 0.02 0.02 0.02 0.02 0.02 0.02 0.02 0.01 0.02 0.02 0.03 0.04
0.00 0.00 0.00 0.00 0.00 0.00 0.00 0.00 0.00 0.00 0.00 0.00 0.00 0.00 0.00 0.00 0.00 0.00 0.00 0.00 0.00 0.00 0.01 0.02 0.02 0.03 0.03 0.02 0.03 0.04 0.04 0.04 0.04 0.04 0.04 0.02 0.02 0.01 0.01 0.02 0.02 0.02 0.03
0.00 0.00 0.00 0.00 0.00 0.00 0.00 0.00 0.00 0.00 0.00 0.00 0.00 0.00 0.00 0.00 0.00 0.00 0.00 0.00 0.00 0.00 0.01 0.02 0.02 0.02 0.03 0.03 0.04 0.04 0.04 0.05 0.05 0.06 0.05 0.03 0.02 0.02 0.02 0.01 0.02 0.02 0.02
MSLP
1017.26 1017.14 1017.02 1016.90 1016.79 1016.73 1016.72 1016.81 1017.00 1017.30 1017.68 1018.12 1018.59 1019.05 1019.47 1019.83 1020.12 1020.35 1020.53 1020.69 1020.86 1021.06 1021.30 1021.60 1021.96 1022.36 1022.79 1023.21 1023.61 1023.95 1024.21 1024.36 1024.40 1024.33 1024.15 1023.88 1023.56 1023.21 1022.86 1022.55 1022.30 1022.12 1022.01
1017.72 1017.65 1017.54 1017.40 1017.25 1017.10 1017.00 1016.99 1017.09 1017.30 1017.62 1018.01 1018.45 1018.88 1019.26 1019.58 1019.82 1019.99 1020.10 1020.19 1020.28 1020.41 1020.60 1020.85 1021.17 1021.54 1021.94 1022.35 1022.73 1023.06 1023.32 1023.48 1023.53 1023.47 1023.31 1023.05 1022.72 1022.35 1021.97 1021.62 1021.33 1021.12 1020.99
1018.06 1018.04 1017.97 1017.84 1017.65 1017.46 1017.30 1017.21 1017.23 1017.38 1017.64 1017.99 1018.37 1018.76 1019.10 1019.37 1019.55 1019.65 1019.69 1019.71 1019.73 1019.79 1019.91 1020.10 1020.35 1020.66 1021.01 1021.36 1021.71 1022.01 1022.26 1022.43 1022.51 1022.48 1022.36 1022.13 1021.83 1021.47 1021.08 1020.72 1020.39 1020.14 1019.99
1018.24 1018.29 1018.27 1018.17 1017.99 1017.79 1017.59 1017.46 1017.43 1017.53 1017.73 1018.03 1018.36 1018.69 1018.98 1019.18 1019.30 1019.33 1019.30 1019.25 1019.20 1019.20 1019.24 1019.35 1019.53 1019.76 1020.02 1020.30 1020.58 1020.84 1021.06 1021.24 1021.34 1021.37 1021.30 1021.14 1020.89 1020.57 1020.20 1019.83 1019.49 1019.21 1019.02
1018.29 1018.42 1018.47 1018.42 1018.28 1018.08 1017.88 1017.73 1017.67 1017.72 1017.88 1018.12 1018.39 1018.66 1018.88 1019.01 1019.06 1019.02 1018.93 1018.81 1018.71 1018.63 1018.60 1018.64 1018.72 1018.85 1019.01 1019.20 1019.39 1019.59 1019.78 1019.94 1020.07 1020.15 1020.15 1020.06 1019.89 1019.63 1019.31 1018.96 1018.61 1018.32 1018.09
1018.26 1018.47 1018.59 1018.60 1018.51 1018.35 1018.17 1018.02 1017.94 1017.96 1018.07 1018.24 1018.45 1018.64 1018.78 1018.84 1018.82 1018.72 1018.57 1018.40 1018.24 1018.11 1018.02 1017.98 1017.97 1018.00 1018.05 1018.12 1018.22 1018.33 1018.47 1018.61 1018.75 1018.86 1018.93 1018.92 1018.83 1018.65 1018.38 1018.07 1017.73 1017.42 1017.17
1018.20 1018.48 1018.67 1018.75 1018.72 1018.60 1018.44 1018.30 1018.21 1018.20 1018.26 1018.37 1018.51 1018.63 1018.69 1018.68 1018.59 1018.44 1018.24 1018.03 1017.83 1017.66 1017.51 1017.40 1017.31 1017.23 1017.17 1017.13 1017.11 1017.13 1017.19 1017.29 1017.42 1017.55 1017.66 1017.71 1017.69 1017.58 1017.38 1017.11 1016.80 1016.49 1016.23
1018.15 1018.48 1018.73 1018.87 1018.89 1018.82 1018.69 1018.56 1018.46 1018.42 1018.44 1018.49 1018.55 1018.60 1018.59 1018.51 1018.37 1018.17 1017.94 1017.71 1017.48 1017.27 1017.09 1016.91 1016.75 1016.58 1016.41 1016.26 1016.13 1016.04 1016.01 1016.04 1016.13 1016.24 1016.36 1016.45 1016.47 1016.41 1016.26 1016.04 1015.77 1015.48 1015.22
1018.12 1018.50 1018.79 1018.97 1019.04 1019.00 1018.90 1018.78 1018.67 1018.61 1018.58 1018.58 1018.58 1018.55 1018.48 1018.35 1018.16 1017.93 1017.68 1017.42 1017.18 1016.95 1016.73 1016.51 1016.28 1016.03 1015.77 1015.51 1015.27 1015.07 1014.94 1014.89 1014.90 1014.97 1015.06 1015.14 1015.17 1015.13 1015.02 1014.83 1014.60 1014.35 1014.12
1018.11 1018.51 1018.83 1019.04 1019.14 1019.12 1019.04 1018.93 1018.83 1018.74 1018.68 1018.64 1018.59 1018.50 1018.37 1018.19 1017.96 1017.70 1017.43 1017.16 1016.90 1016.65 1016.40 1016.14 1015.86 1015.54 1015.20 1014.85 1014.51 1014.22 1013.98 1013.83 1013.75 1013.74 1013.76 1013.79 1013.80 1013.76 1013.65 1013.50 1013.30 1013.10 1012.92
1018.11 1018.52 1018.85 1019.08 1019.19 1019.20 1019.14 1019.04 1018.93 1018.84 1018.76 1018.67 1018.58 1018.45 1018.27 1018.04 1017.77 1017.48 1017.18 1016.88 1016.60 1016.32 1016.04 1015.74 1015.41 1015.05 1014.65 1014.23 1013.81 1013.43 1013.10 1012.84 1012.67 1012.55 1012.49 1012.44 1012.39 1012.31 1012.20 1012.05 1011.90 1011.75 1011.63
1018.11 1018.52 1018.85 1019.08 1019.20 1019.23 1019.18 1019.10 1019.00 1018.91 1018.81 1018.70 1018.56 1018.39 1018.16 1017.89 1017.57 1017.23 1016.89 1016.55 1016.23 1015.91 1015.59 1015.25 1014.88 1014.47 1014.03 1013.56 1013.08 1012.64 1012.23 1011.89 1011.62 1011.41 1011.24 1011.11 1010.98 1010.84 1010.70 1010.56 1010.43 1010.34 1010.29
1018.12 1018.52 1018.84 1019.07 1019.20 1019.24 1019.21 1019.15 1019.06 1018.97 1018.86 1018.72 1018.55 1018.33 1018.05 1017.72 1017.34 1016.94 1016.54 1016.14 1015.76 1015.38 1015.01 1014.62 1014.21 1013.76 1013.28 1012.79 1012.28 1011.79 1011.34 1010.94 1010.59 1010.29 1010.04 1009.81 1009.60 1009.41 1009.23 1009.08 1008.97 1008.92 1008.94
1018.15 1018.53 1018.84 1019.07 1019.20 1019.25 1019.24 1019.20 1019.12 1019.02 1018.89 1018.73 1018.52 1018.24 1017.90 1017.50 1017.06 1016.59 1016.11 1015.63 1015.17 1014.72 1014.28 1013.84 1013.38 1012.90 1012.40 1011.88 1011.36 1010.86 1010.38 1009.95 1009.55 1009.19 1008.87 1008.57 1008.30 1008.05 1007.84 1007.67 1007.57 1007.55 1007.63
1018.21 1018.58 1018.87 1019.08 1019.22 1019.28 1019.28 1019.24 1019.17 1019.06 1018.91 1018.71 1018.44 1018.11 1017.70 1017.23 1016.71 1016.15 1015.59 1015.03 1014.49 1013.96 1013.45 1012.94 1012.43 1011.91 1011.39 1010.86 1010.34 1009.84 1009.36 1008.91 1008.49 1008.11 1007.75 1007.40 1007.09 1006.80 1006.55 1006.37 1006.27 1006.27 1006.37
1018.33 1018.66 1018.93 1019.13 1019.26 1019.32 1019.32 1019.28 1019.19 1019.06 1018.87 1018.62 1018.29 1017.89 1017.41 1016.87 1016.28 1015.65 1015.01 1014.37 1013.75 1013.15 1012.56 1011.99 1011.42 1010.86 1010.31 1009.77 1009.24 1008.75 1008.28 1007.84 1007.43 1007.04 1006.67 1006.31 1005.98 1005.67 1005.41 1005.21 1005.11 1005.10 1005.20
1018.47 1018.77 1019.01 1019.19 1019.29 1019.34 1019.32 1019.26 1019.15 1018.97 1018.74 1018.43 1018.04 1017.57 1017.03 1016.42 1015.77 1015.08 1014.39 1013.70 1013.01 1012.34 1011.69 1011.05 1010.43 1009.82 1009.23 1008.66 1008.13 1007.63 1007.17 1006.75 1006.36 1005.99 1005.64 1005.29 1004.96 1004.66 1004.39 1004.19 1004.06 1004.04 1004.12
1018.64 1018.89 1019.09 1019.22 1019.30 1019.31 1019.26 1019.16 1019.00 1018.77 1018.47 1018.10 1017.65 1017.12 1016.53 1015.88 1015.19 1014.48 1013.76 1013.03 1012.32 1011.60 1010.90 1010.20 1009.52 1008.86 1008.22 1007.62 1007.06 1006.55 1006.09 1005.68 1005.32 1004.98 1004.65 1004.34 1004.04 1003.75 1003.49 1003.28 1003.14 1003.08 1003.12
1018.79 1018.99 1019.13 1019.21 1019.24 1019.20 1019.11 1018.95 1018.73 1018.43 1018.07 1017.63 1017.12 1016.55 1015.93 1015.26 1014.57 1013.86 1013.14 1012.42 1011.69 1010.96 1010.22 1009.48 1008.74 1008.02 1007.32 1006.67 1006.06 1005.53 1005.06 1004.65 1004.30 1003.99 1003.71 1003.44 1003.18 1002.92 1002.68 1002.47 1002.31 1002.21 1002.20
1018.90 1019.04 1019.12 1019.14 1019.10 1019.01 1018.85 1018.63 1018.34 1017.98 1017.55 1017.05 1016.50 1015.90 1015.26 1014.59 1013.92 1013.24 1012.55 1011.85 1011.14 1010.40 1009.65 1008.87 1008.08 1007.30 1006.54 1005.81 1005.16 1004.58 1004.08 1003.67 1003.33 1003.05 1002.80 1002.58 1002.36 1002.14 1001.93 1001.72 1001.55 1001.42 1001.35
1018.97 1019.04 1019.04 1018.99 1018.89 1018.73 1018.51 1018.23 1017.87 1017.45 1016.96 1016.41 1015.82 1015.20 1014.56 1013.91 1013.27 1012.63 1011.98 1011.32 1010.63 1009.90 1009.14 1008.33 1007.50 1006.65 1005.82 1005.03 1004.31 1003.68 1003.15 1002.72 1002.39 1002.13 1001.92 1001.74 1001.57 1001.40 1001.21 1001.03 1000.85 1000.69 1000.59
1018.99 1018.98 1018.91 1018.79 1018.62 1018.40 1018.12 1017.78 1017.36 1016.89 1016.35 1015.77 1015.15 1014.52 1013.88 1013.25 1012.63 1012.02 1011.41 1010.78 1010.11 1009.40 1008.62 1007.79 1006.91 1006.02 1005.12 1004.27 1003.49 1002.81 1002.25 1001.80 1001.47 1001.23 1001.06 1000.92 1000.80 1000.67 1000.52 1000.36 1000.20 1000.04 999.91
1018.95 1018.86 1018.72 1018.54 1018.32 1018.04 1017.71 1017.33 1016.87 1016.36 1015.79 1015.17 1014.54 1013.89 1013.25 1012.63 1012.03 1011.43 1010.84 1010.22 1009.56 1008.84 1008.04 1007.19 1006.27 1005.33 1004.39 1003.48 1002.66 1001.94 1001.35 1000.90 1000.57 1000.34 1000.20 1000.11 1000.03 999.96 999.86 999.73 999.59 999.46 999.34
1018.84 1018.68 1018.49 1018.25 1017.98 1017.67 1017.32 1016.90 1016.42 1015.88 1015.29 1014.66 1014.01 1013.35 1012.69 1012.06 1011.45 1010.84 1010.24 1009.60 1008.92 1008.18 1007.36 1006.48 1005.53 1004.55 1003.58 1002.65 1001.80 1001.06 1000.46 1000.00 999.68 999.48 999.37 999.32 999.29 999.26 999.21 999.14 999.05 998.95 998.86
1018.66 1018.44 1018.19 1017.92 1017.62 1017.29 1016.92 1016.49 1016.01 1015.46 1014.87 1014.23 1013.56 1012.88 1012.20 1011.54 1010.90 1010.25 1009.61 1008.93 1008.21 1007.43 1006.58 1005.66 1004.69 1003.70 1002.71 1001.77 1000.92 1000.18 999.58 999.14 998.84 998.66 998.57 998.56 998.57 998.60 998.60 998.59 998.55 998.51 998.47
1018.38 1018.11 1017.82 1017.52 1017.20 1016.87 1016.49 1016.08 1015.60 1015.07 1014.47 1013.83 1013.16 1012.46 1011.76 1011.05 1010.36 1009.66 1008.96 1008.22 1007.45 1006.62 1005.73 1004.79 1003.81 1002.81 1001.83 1000.90 1000.07 999.35 998.77 998.35 998.07 997.91 997.85 997.86 997.92 997.98 998.04 998.09 998.12 998.14 998.17
Thickness
5673 5674 5675 5675 5675 5673 5670 5667 5663 5659 5653 5646 5640 5634 5631 5627 5623 5620 5616 5612 5608 5604 5600 5597 5593 5588 5584 5581 5577 5571 5567 5564 5559 5554 5557 5563 5565 5567 5569 5567 5566 5565 5563
5667 5668 5668 5667 5665 5663 5661 5659 5656 5652 5648 5643 5637 5631 5627 5623 5619 5615 5612 5609 5605 5601 5596 5592 5589 5584 5579 5575 5571 5565 5560 5557 5551 5545 5541 5547 5557 5562 5565 5564 5562 5560 5556
5657 5658 5658 5656 5655 5653 5651 5651 5648 5645 5641 5636 5630 5623 5619 5615 5612 5610 5608 5606 5601 5597 5593 5590 5585 5580 5575 5571 5567 5561 5554 5551 5546 5540 5535 5531 5543 5546 5554 5554 5553 5551 5548
5651 5650 5649 5647 5644 5642 5641 5641 5640 5637 5633 5629 5623 5617 5612 5609 5609 5606 5603 5601 5597 5594 5590 5586 5581 5577 5572 5568 5564 5558 5552 5545 5541 5532 5531 5532 5531 5527 5537 5543 5541 5539 5537
5644 5642 5640 5638 5635 5632 5632 5631 5630 5628 5624 5621 5617 5611 5608 5606 5604 5600 5597 5595 5592 5589 5586 5582 5578 5574 5569 5565 5560 5555 5548 5542 5537 5531 5524 5520 5517 5513 5510 5527 5531 5527 5529
5637 5635 5632 5630 5627 5625 5623 5622 5621 5618 5615 5612 5609 5604 5601 5599 5596 5593 5591 5589 5586 5583 5581 5577 5573 5569 5565 5561 5556 5550 5544 5539 5533 5527 5521 5514 5509 5508 5503 5508 5518 5520 5522
5629 5626 5624 5620 5618 5616 5614 5612 5611 5609 5607 5604 5601 5598 5595 5592 5589 5587 5584 5582 5579 5577 5574 5570 5566 5562 5559 5554 5549 5543 5538 5532 5527 5522 5517 5512 5509 5502 5499 5498 5505 5506 5510
5621 5619 5616 5612 5608 5607 5605 5603 5602 5600 5598 5596 5594 5591 5588 5585 5582 5580 5577 5574 5572 5571 5568 5563 5559 5555 5551 5547 5541 5536 5531 5526 5520 5515 5510 5505 5502 5495 5490 5486 5483 5486 5495
5616 5612 5608 5605 5601 5599 5596 5594 5593 5591 5590 5588 5586 5583 5580 5577 5574 5572 5568 5565 5563 5561 5558 5554 5550 5546 5541 5537 5532 5527 5523 5517 5513 5507 5502 5496 5493 5486 5481 5476 5469 5464 5474
5608 5605 5600 5596 5593 5590 5588 5586 5584 5582 5580 5578 5576 5574 5570 5567 5564 5561 5558 5555 5552 5549 5545 5542 5537 5533 5529 5524 5519 5515 5511 5506 5502 5496 5491 5486 5482 5475 5470 5464 5459 5453 5453
5600 5594 5590 5587 5584 5582 5579 5577 5575 5573 5570 5568 5565 5562 5559 5556 5552 5549 5545 5542 5539 5535 5531 5527 5523 5518 5514 5509 5504 5500 5496 5491 5488 5483 5478 5475 5468 5463 5458 5452 5447 5443 5439
5591 5586 5582 5578 5576 5573 5571 5568 5565 5562 5559 5556 5553 5550 5546 5543 5539 5536 5532 5528 5524 5520 5516 5511 5506 5502 5498 5492 5487 5483 5479 5475 5472 5468 5462 5460 5453 5450 5445 5440 5437 5434 5430
5583 5577 5573 5569 5566 5564 5561 5558 5555 5551 5548 5545 5540 5537 5533 5530 5526 5522 5518 5514 5509 5504 5499 5494 5489 5484 5479 5474 5469 5464 5461 5457 5454 5450 5446 5443 5436 5435 5431 5427 5426 5423 5420
5572 5568 5563 5560 5556 5553 5550 5547 5543 5540 5536 5532 5527 5523 5519 5515 5511 5507 5502 5497 5492 5487 5482 5477 5471 5466 5460 5455 5449 5444 5441 5438 5435 5431 5428 5425 5421 5419 5417 5414 5413 5410 5407
5564 5560 5555 5550 5546 5543 5539 5536 5532 5527 5523 5518 5513 5509 5505 5500 5495 5490 5485 5480 5475 5469 5464 5458 5453 5447 5440 5435 5429 5425 5422 5419 5417 5415 5411 5409 5406 5405 5403 5401 5400 5396 5395
5555 5551 5546 5541 5536 5532 5528 5524 5519 5515 5509 5504 5499 5495 5490 5485 5479 5474 5469 5463 5458 5452 5445 5439 5433 5429 5423 5418 5414 5410 5408 5406 5403 5401 5399 5395 5393 5393 5394 5395 5394 5390 5385
5544 5540 5534 5529 5524 5520 5515 5510 5506 5501 5495 5490 5485 5480 5474 5468 5463 5457 5451 5445 5440 5434 5428 5421 5415 5411 5407 5401 5399 5397 5395 5394 5391 5389 5387 5385 5384 5383 5381 5382 5385 5386 5386
5533 5527 5522 5518 5513 5508 5503 5497 5492 5486 5480 5474 5469 5463 5457 5451 5446 5440 5433 5428 5422 5416 5410 5405 5399 5395 5393 5388 5387 5385 5384 5383 5381 5378 5375 5374 5374 5372 5370 5370 5371 5372 5372
5520 5514 5510 5505 5500 5494 5489 5483 5478 5471 5465 5460 5454 5447 5440 5434 5429 5423 5417 5410 5404 5401 5394 5390 5385 5382 5382 5378 5376 5375 5374 5373 5371 5369 5367 5365 5365 5366 5365 5364 5363 5363 5363
5507 5503 5498 5492 5487 5481 5475 5468 5462 5456 5451 5446 5440 5432 5423 5416 5411 5406 5400 5394 5387 5384 5381 5378 5374 5371 5370 5369 5368 5366 5365 5364 5364 5364 5361 5361 5360 5360 5360 5358 5357 5357 5357
5496 5491 5485 5478 5472 5467 5460 5453 5447 5441 5437 5431 5424 5416 5408 5400 5394 5389 5384 5377 5373 5371 5369 5368 5367 5364 5362 5362 5361 5359 5357 5357 5358 5358 5356 5354 5354 5355 5355 5354 5352 5352 5350
5483 5478 5471 5465 5459 5452 5444 5439 5433 5430 5424 5417 5410 5402 5394 5385 5380 5374 5370 5365 5360 5359 5360 5360 5361 5359 5357 5356 5355 5354 5354 5354 5353 5352 5351 5350 5350 5350 5350 5349 5348 5347 5345
5468 5462 5456 5450 5444 5437 5429 5423 5421 5415 5409 5402 5395 5388 5382 5374 5366 5360 5358 5356 5352 5350 5351 5351 5353 5355 5354 5351 5351 5351 5350 5350 5348 5348 5348 5348 5348 5347 5345 5343 5342 5339 5336
5453 5448 5441 5436 5431 5425 5416 5409 5405 5400 5393 5387 5381 5375 5369 5365 5359 5352 5348 5346 5344 5343 5343 5344 5347 5349 5350 5348 5347 5346 5345 5345 5344 5343 5344 5344 5343 5340 5338 5337 5333 5329 5326
5439 5433 5427 5422 5418 5412 5405 5398 5390 5384 5378 5373 5368 5363 5357 5353 5351 5348 5343 5340 5340 5335 5337 5340 5341 5342 5346 5346 5345 5344 5344 5343 5343 5343 5341 5338 5335 5332 5329 5327 5323 5320 5317
5426 5420 5415 5409 5405 5399 5393 5386 5378 5369 5363 5360 5356 5351 5347 5345 5342 5341 5343 5341 5337 5337 5336 5336 5337 5339 5340 5342 5343 5342 5342 5342 5342 5340 5337 5334 5330 5327 5324 5321 5317 5313 5309